Content
SEND FEEDBACK

Daily
Averages
Monthly
Summary
Netherlands

MAASTRICHT, NETHERLANDS


Home > Europe > Netherlands
Elevation: 380 feet     Latitude: 50 55N     Longitude: 005 47E

WEATHER
 
SELECT A DAY
Number of Records: 301,353;   Date Range: 7/1/96 - 7/23/14
 
SHARE

PRINT THIS DATA

[ ← Previous Day ]
WEATHER ALMANAC - OCTOBER 8, 2013
[ Next Day → ]
[ °C ]   °F
We're sorry. There is no daily almanac available for Maastricht, Netherlands on October 8, 2013.
WEATHER BY HOUR - OCTOBER 8, 2013
[ °C ]   °F
Local TimeTemperatureDewpointHumidityBarometerVisibilityWind DirectionWind SpeedGust SpeedPrecipitationEventsConditions
12:55 AM51.8 °F50.0 °F94 %30.27 in4.3 miSouth (170°)2.3 mphOvercast
1:25 AM50.0 °F50.0 °F100 %30.27 in3.7 miCalmOvercast
1:55 AM50.0 °F50.0 °F100 %30.27 in3.1 miVariable1.2 mphMostly Cloudy
2:00 AM50.0 °F49.0 °F96 %30.30 in3.0 miSSE (150°)2.2 mphMist
2:25 AM50.0 °F48.2 °F94 %30.27 inSSE (160°)3.5 mphScattered Clouds
2:55 AM50.0 °F48.2 °F94 %30.27 inSSW (200°)3.5 mphPartly Cloudy
3:25 AM50.0 °F48.2 °F94 %30.27 in2.5 miSSW (200°)3.5 mphOvercast
3:55 AM48.2 °F48.2 °F100 %30.27 inSSW (210°)4.6 mphMostly Cloudy
4:25 AM48.2 °F48.2 °F100 %30.27 in1.9 miSSW (200°)4.6 mphOvercast
4:55 AM50.0 °F50.0 °F100 %30.24 inSSW (210°)4.6 mphOvercast
5:00 AM51.0 °F51.0 °F98 %30.28 in2.0 miSSW (210°)4.5 mphMist
5:25 AM51.8 °F50.0 °F94 %30.27 inSSW (210°)3.5 mphOvercast
5:55 AM51.8 °F51.8 °F100 %30.27 inSSW (200°)3.5 mphOvercast
6:25 AM51.8 °F50.0 °F94 %30.24 in3.1 miSouth (190°)3.5 mphOvercast
6:55 AM51.8 °F50.0 °F94 %30.24 in3.1 miSSW (210°)5.8 mphOvercast
7:25 AM50.0 °F50.0 °F100 %30.24 inSSW (210°)5.8 mphOvercast
7:55 AM50.0 °F50.0 °F100 %30.27 inSSW (210°)5.8 mphOvercast
8:00 AM51.0 °F50.0 °F95 %30.28 in2.0 miSSW (210°)6.7 mphMist
8:25 AM51.8 °F50.0 °F94 %30.27 inSSW (200°)4.6 mphOvercast
8:55 AM53.6 °F51.8 °F94 %30.27 inSouth (190°)3.5 mphOvercast
9:25 AM53.6 °F51.8 °F94 %30.27 in3.1 miSouth (190°)4.6 mphOvercast
9:55 AM55.4 °F51.8 °F88 %30.27 in3.7 miSSW (210°)5.8 mphOvercast
10:25 AM55.4 °F51.8 °F88 %30.27 in4.3 miSW (220°)5.8 mphOvercast
10:55 AM57.2 °F53.6 °F88 %30.27 in4.3 miWSW (240°)4.6 mphOvercast
11:00 AM57.0 °F53.0 °F84 %30.31 in4.0 miWSW (240°)4.5 mphMist
11:25 AM57.2 °F53.6 °F88 %30.27 in3.7 miWSW (250°)4.6 mphOvercast
11:55 AM57.2 °F53.6 °F88 %30.27 in3.7 miWSW (250°)4.6 mphOvercast
12:25 PM59.0 °F51.8 °F77 %30.27 in3.7 miWSW (250°)4.6 mphOvercast
12:55 PM59.0 °F53.6 °F82 %30.27 in5.0 miSW (230°)4.6 mphOvercast
1:25 PM62.6 °F50.0 °F63 %30.27 in6.2 miVariable2.3 mphMostly Cloudy
1:55 PM64.4 °F48.2 °F56 %30.24 in6.2 miWest (260°)5.8 mphMostly Cloudy
2:00 PM62.0 °F47.0 °F48 %30.28 in12.0 miWSW (250°)4.5 mphPartly Cloudy
2:25 PM62.6 °F48.2 °F59 %30.24 in6.2 miWest (280°)2.3 mphOvercast
2:55 PM62.6 °F48.2 °F59 %30.24 in6.2 miWNW (300°)3.5 mphOvercast
3:25 PM62.6 °F50.0 °F63 %30.24 in6.2 miWSW (250°)4.6 mphOvercast
3:55 PM62.6 °F50.0 °F63 %30.24 in6.2 miWSW (240°)5.8 mphOvercast
4:25 PM62.6 °F51.8 °F68 %30.24 in6.2 miWSW (250°)3.5 mphOvercast
4:55 PM62.6 °F51.8 °F68 %30.24 in6.2 miWest (260°)3.5 mphOvercast
5:00 PM62.0 °F51.0 °F58 %30.26 in11.0 miWSW (240°)2.2 mphOvercast
5:25 PM62.6 °F51.8 °F68 %30.24 in6.2 miWSW (240°)4.6 mphOvercast
5:55 PM62.6 °F51.8 °F68 %30.24 in6.2 miWSW (240°)4.6 mphMostly Cloudy
6:25 PM60.8 °F53.6 °F77 %30.24 in6.2 miWSW (240°)4.6 mphOvercast
6:55 PM60.8 °F53.6 °F77 %30.24 in6.2 miVariable2.3 mphOvercast
7:25 PM59.0 °F53.6 °F82 %30.24 in6.2 miSSW (210°)1.2 mphOvercast
7:55 PM59.0 °F53.6 °F82 %30.24 in6.2 miSSW (210°)3.5 mphOvercast
8:25 PM59.0 °F53.6 °F82 %30.27 in6.2 miSSW (210°)3.5 mphOvercast
8:55 PM59.0 °F53.6 °F82 %30.24 in6.2 miSSW (210°)3.5 mphOvercast
9:25 PM59.0 °F53.6 °F82 %30.24 in6.2 miSSW (210°)3.5 mphOvercast
9:55 PM59.0 °F53.6 °F82 %30.24 in6.2 miSouth (190°)3.5 mphOvercast
10:25 PM57.2 °F53.6 °F88 %30.24 in6.2 miSW (220°)4.6 mphOvercast
10:55 PM57.2 °F53.6 °F88 %30.24 in6.2 miSW (220°)5.8 mphOvercast
11:00 PM57.0 °F53.0 °F83 %30.27 in7.0 miSSW (210°)4.5 mphOvercast
11:25 PM57.2 °F53.6 °F88 %30.24 in6.2 miSSW (200°)4.6 mphOvercast
11:55 PM57.2 °F53.6 °F88 %30.24 in6.2 miSSW (200°)4.6 mphMostly Cloudy
Hourly data recorded from EHBK, located miles away from Maastricht, Netherlands







STORIES FROM OUR PARTNERS